{"data":{"norad_id":67521,"intl_designator":"2026-012AE","name":"STARLINK-36444","alt_names":[],"object_type":"PAYLOAD","status":"ACTIVE","operator":null,"country":"US","launch_date":"2026-01-18","launch_site_code":"AFETR","launch_vehicle":null,"mission":null,"orbit_class":"UNKNOWN","rcs_meters":null,"size_class":null,"mass_kg":null,"dimensions":null,"purposes":["comms"],"wikipedia_slug":null,"has_3d_model":false,"image_url":null,"decayed_at":null,"tle_current":{"epoch":"2026-05-24T23:49:57.518112Z","epoch_age_seconds":69646,"freshness":"FRESH","line1":"1 67521U 26012AE  26144.99302683  .00023002  00000+0  84246-3 0  9992","line2":"2 67521  43.0068 243.2831 0002009 266.6537  93.4085 15.27593154 19431","mean_motion":15.27593154,"eccentricity":0.0002009,"inclination_deg":43.0068,"raan_deg":243.2831,"arg_perigee_deg":266.6537,"mean_anomaly_deg":93.4085,"bstar":0.00084246,"rev_number":1943,"period_min":94.265936989136,"perigee_km":481.63130414042,"apogee_km":484.3881128879,"semimajor_km":6861.1467085142,"source":"CELESTRAK","updated_at":"2026-05-25T13:38:21.604665Z"}}}